This is the latest recevied weather packets stored in our database for station/object ER1XDX-10. If no packets are shown the sender has not sent any weather packets the latest 10 day(s).
| Time | Temp. | Humidity | Pressure | Rain* | Wind** | Luminosity | Snow |
|---|---|---|---|---|---|---|---|
| 1777749552 | 19.44° C | 40% | 1019.1 hPa | - | - | - | - |
| 1777748652 | 19.44° C | 38% | 1019 hPa | - | - | - | - |
| 1777747752 | 19.44° C | 36% | 1019 hPa | - | - | - | - |
| 1777746851 | 19.44° C | 35% | 1019 hPa | - | - | - | - |
| 1777745951 | 19.44° C | 36% | 1018.8 hPa | - | - | - | - |
| 1777745051 | 19.44° C | 37% | 1018.8 hPa | - | - | - | - |
| 1777744151 | 19.44° C | 36% | 1018.7 hPa | - | - | - | - |
| 1777743251 | 19.44° C | 37% | 1018.5 hPa | - | - | - | - |
| 1777742351 | 19.44° C | 36% | 1018.4 hPa | - | - | - | - |
| 1777741451 | 20° C | 35% | 1018.4 hPa | - | - | - | - |
| 1777740550 | 20° C | 36% | 1018.5 hPa | - | - | - | - |
| 1777739650 | 20° C | 36% | 1018.3 hPa | - | - | - | - |
| 1777738750 | 20° C | 37% | 1018.4 hPa | - | - | - | - |
| 1777737850 | 20° C | 37% | 1018.4 hPa | - | - | - | - |
| 1777736950 | 20° C | 38% | 1018.4 hPa | - | - | - | - |
| 1777736050 | 20° C | 39% | 1018.4 hPa | - | - | - | - |
| 1777735150 | 20° C | 40% | 1018.5 hPa | - | - | - | - |
| 1777734250 | 20° C | 43% | 1018.5 hPa | - | - | - | - |
| 1777733349 | 20° C | 47% | 1018.6 hPa | - | - | - | - |
| 1777732449 | 20.56° C | 45% | 1018.6 hPa | - | - | - | - |
| 1777731548 | 20° C | 44% | 1018.7 hPa | - | - | - | - |
| 1777730648 | 20.56° C | 43% | 1018.7 hPa | - | - | - | - |
| 1777729748 | 20.56° C | 43% | 1018.8 hPa | - | - | - | - |
| 1777728847 | 20.56° C | 42% | 1018.8 hPa | - | - | - | - |
| 1777727946 | 20.56° C | 42% | 1019 hPa | - | - | - | - |
* Rain since midnight (hover to see other rain measurements)
** Current wind speed in m/s (hover to see current wind gust speed)